Location: Alsip
(41.6689°N, 87.7387°W)
Time: 15:06:42
(UTC+00:00)

Cosmos 676 Rocket - Pass Details

Date: 14 July 2020
Orbit: 753 x 785 km, 74.0° (Epoch: 13 August)

Event Time Altitude Azimuth Distance (km) Brightness Sun altitude
Exits shadow 07:57:52 44° 191° (S) 1,062 4.3 -20.8°
Maximum altitude 07:59:36 83° 108° (ESE) 782 4.0 -20.7°
Drops below altitude 10° 08:04:55 10° 21° (NNE) 2,333 7.7 -20.2°
Sets 08:07:19 0° 21° (NNE) 3,269 8.8 -19.9°
